Date String (YYYY-MM-DD hh:mm:ss) UTC,Instrument flags,absolute air pressure of the measurement (hPa),sample flow rate (lpm),inlet stack bypass flow (lpm),air temperature of the measurement (°C),ambient temperature measured by the external sensor (°C),aerosol sample conditioner tube jacket temperature (°C),OPC LED temperature (°C),internal box temperature (°C),relative humidity of the measurement (%),span deviation,mass concentration of particles derived from Lorenz-Mie calculation of OPC scattering (μg/m³),mass concentration of particles derived from Lorenz-Mie calculation of OPC scattering (μg/m³),mass concentration of particles derived from Lorenz-Mie calculation of OPC scattering (μg/m³)
DateTimeUTC,F1_M11,P_M11,Q1_M11,Q2_M11,T1_M11,T2_M11,T3_M11,T4_M11,T5_M11,U1_M11,ZSPAN_M11,X0_M11,X2_M11,X1_M11
2024-02-11 02:00:00,SystemResetWarning,0827.9,5.00,000.00,018.5,018.2,000.0,026.9,020.1,18.6,0000.0,0004.98,0004.24,0004.16
2024-02-11 02:01:00,SystemResetWarning,0828.0,5.00,000.00,018.5,018.1,000.0,026.9,020.0,18.6,0000.0,0004.97,0004.22,0004.14
2024-02-11 02:02:00,SystemResetWarning,0828.0,5.00,000.00,018.5,018.0,000.0,026.9,020.0,18.7,0000.0,0004.89,0004.19,0004.13
2024-02-11 02:03:00,SystemResetWarning,0828.0,5.00,000.00,018.4,018.0,000.0,026.9,020.0,18.7,0000.0,0004.83,0004.16,0004.10
2024-02-11 02:04:00,SystemResetWarning,0828.0,4.99,000.00,018.4,017.9,000.0,026.9,020.0,18.7,0000.0,0004.71,0004.14,0004.07
2024-02-11 02:05:00,SystemResetWarning,0828.0,5.00,000.00,018.4,017.9,000.0,026.9,020.0,18.7,0000.0,0005.88,0004.12,0004.05
2024-02-11 02:06:00,SystemResetWarning,0828.0,5.00,000.00,018.4,017.8,000.0,026.9,020.0,18.7,0000.0,0005.83,0004.09,0004.03
2024-02-11 02:07:00,SystemResetWarning,0828.1,5.00,000.00,018.4,017.8,000.0,026.9,020.0,18.7,0000.0,0005.72,0004.04,0003.98
2024-02-11 02:08:00,SystemResetWarning,0828.1,5.01,000.00,018.3,017.8,000.0,026.9,020.0,18.7,0000.0,0005.63,0004.00,0003.96
2024-02-11 02:09:00,SystemResetWarning,0828.0,5.01,000.00,018.3,017.7,000.0,026.9,020.0,18.7,0000.0,0005.60,0003.98,0003.95
2024-02-11 02:10:00,SystemResetWarning,0828.1,5.00,000.00,018.3,017.7,000.0,026.9,020.0,18.7,0000.0,0005.57,0003.96,0003.92
2024-02-11 02:11:00,SystemResetWarning,0828.1,5.00,000.00,018.3,017.7,000.0,026.9,020.0,18.7,0000.0,0005.55,0003.95,0003.90
2024-02-11 02:12:00,SystemResetWarning,0828.1,5.00,000.00,018.3,017.7,000.0,026.9,020.0,18.7,0000.0,0005.52,0003.93,0003.90
2024-02-11 02:13:00,SystemResetWarning,0828.1,5.00,000.00,018.3,017.7,000.0,026.9,020.0,18.7,0000.0,0005.58,0003.93,0003.89
2024-02-11 02:14:00,SystemResetWarning,0828.1,4.99,000.00,018.3,017.7,000.0,026.9,020.0,18.7,0000.0,0005.84,0003.93,0003.89
2024-02-11 02:15:00,SystemResetWarning,0828.1,5.00,000.00,018.3,017.7,000.0,026.9,020.0,18.7,0000.0,0005.88,0003.94,0003.90
2024-02-11 02:16:00,SystemResetWarning,0828.1,5.00,000.00,018.3,017.6,000.0,026.9,020.0,18.7,0000.0,0005.10,0003.95,0003.91
2024-02-11 02:17:00,SystemResetWarning,0828.1,5.00,000.00,018.3,017.6,000.0,026.9,020.0,18.7,0000.0,0004.67,0003.96,0003.92
2024-02-11 02:18:00,SystemResetWarning,0828.1,5.00,000.00,018.3,017.6,000.0,026.9,020.0,18.7,0000.0,0004.71,0003.98,0003.94
2024-02-11 02:19:00,SystemResetWarning,0828.1,5.00,000.00,018.3,017.6,000.0,026.9,020.0,18.7,0000.0,0004.77,0004.00,0003.96
2024-02-11 02:20:00,SystemResetWarning,0828.1,5.00,000.00,018.3,017.6,000.0,026.9,020.0,18.7,0000.0,0004.87,0004.04,0003.98
2024-02-11 02:21:00,SystemResetWarning,0828.2,5.00,000.00,018.3,017.6,000.0,026.9,020.0,18.8,0000.0,0004.87,0004.06,0004.02
2024-02-11 02:22:00,SystemResetWarning,0828.2,4.99,000.00,018.3,017.6,000.0,026.9,020.0,18.8,0000.0,0004.90,0004.09,0004.05
2024-02-11 02:23:00,SystemResetWarning,0828.2,5.00,000.00,018.3,017.6,000.0,026.9,020.0,18.8,0000.0,0004.95,0004.12,0004.08
2024-02-11 02:24:00,SystemResetWarning,0828.2,5.00,000.00,018.3,017.7,000.0,027.0,020.1,18.8,0000.0,0004.96,0004.15,0004.10
2024-02-11 02:25:00,SystemResetWarning,0828.2,5.01,000.00,018.4,018.4,000.0,027.1,020.5,18.6,0000.0,0004.72,0004.17,0004.11
2024-02-11 02:26:00,SystemResetWarning,0828.2,5.01,000.00,018.7,019.0,000.0,027.1,020.9,18.4,0000.0,0004.87,0004.17,0004.12
2024-02-11 02:27:00,SystemResetWarning,0828.2,4.98,000.00,018.7,018.8,000.0,027.0,020.7,18.3,0000.0,0004.97,0004.18,0004.13
2024-02-11 02:28:00,SystemResetWarning,0828.2,5.01,000.00,018.7,018.7,000.0,027.0,020.5,18.3,0000.0,0005.03,0004.20,0004.14
2024-02-11 02:29:00,SystemResetWarning,0828.2,5.02,000.00,018.6,018.5,000.0,027.0,020.3,18.4,0000.0,0005.05,0004.20,0004.13
2024-02-11 02:30:00,SystemResetWarning,0828.2,4.99,000.00,018.6,018.4,000.0,026.9,020.2,18.4,0000.0,0005.04,0004.20,0004.13
2024-02-11 02:31:00,SystemResetWarning,0828.2,4.99,000.00,018.5,018.3,000.0,026.9,020.1,18.5,0000.0,0004.96,0004.18,0004.12
2024-02-11 02:32:00,SystemResetWarning,0828.2,5.00,000.00,018.5,018.2,000.0,026.9,020.0,18.5,0000.0,0004.93,0004.16,0004.11
2024-02-11 02:33:00,SystemResetWarning,0828.2,5.01,000.00,018.5,018.1,000.0,026.9,020.0,18.6,0000.0,0004.92,0004.15,0004.09
2024-02-11 02:34:00,SystemResetWarning,0828.2,5.01,000.00,018.4,018.0,000.0,026.9,020.0,18.6,0000.0,0004.92,0004.13,0004.07
2024-02-11 02:35:00,SystemResetWarning,0828.2,5.00,000.00,018.4,017.9,000.0,026.9,020.0,18.6,0000.0,0004.89,0004.11,0004.05
2024-02-11 02:36:00,SystemResetWarning,0828.2,5.00,000.00,018.4,017.9,000.0,026.9,020.0,18.7,0000.0,0004.85,0004.09,0004.03
2024-02-11 02:37:00,SystemResetWarning,0828.2,4.99,000.00,018.4,017.8,000.0,026.9,020.0,18.7,0000.0,0004.75,0004.07,0004.01
2024-02-11 02:38:00,SystemResetWarning,0828.3,5.00,000.00,018.4,017.8,000.0,026.9,020.0,18.7,0000.0,0004.57,0004.05,0004.00
2024-02-11 02:39:00,SystemResetWarning,0828.3,5.00,000.00,018.3,017.7,000.0,026.9,020.0,18.7,0000.0,0004.48,0004.02,0003.98
2024-02-11 02:40:00,SystemResetWarning,0828.3,5.00,000.00,018.3,017.7,000.0,026.9,020.0,18.8,0000.0,0004.44,0004.01,0003.97
2024-02-11 02:41:00,SystemResetWarning,0828.3,5.00,000.00,018.3,017.7,000.0,026.9,020.0,18.8,0000.0,0004.42,0004.00,0003.96
2024-02-11 02:42:00,SystemResetWarning,0828.3,5.00,000.00,018.3,017.7,000.0,026.9,020.0,18.8,0000.0,0004.44,0003.99,0003.95
2024-02-11 02:43:00,SystemResetWarning,0828.3,5.01,000.00,018.3,017.7,000.0,026.9,020.0,18.8,0000.0,0004.46,0003.99,0003.95
2024-02-11 02:44:00,SystemResetWarning,0828.3,5.01,000.00,018.3,017.6,000.0,026.9,020.0,18.8,0000.0,0004.88,0004.00,0003.96
2024-02-11 02:45:00,SystemResetWarning,0828.3,5.00,000.00,018.3,017.6,000.0,027.0,020.0,18.8,0000.0,0005.38,0004.01,0003.96
2024-02-11 02:46:00,SystemResetWarning,0828.3,5.00,000.00,018.3,017.6,000.0,027.0,020.0,18.8,0000.0,0005.39,0004.03,0003.98
2024-02-11 02:47:00,SystemResetWarning,0828.3,5.00,000.00,018.3,017.6,000.0,026.9,020.0,18.8,0000.0,0005.39,0004.03,0003.99
2024-02-11 02:48:00,SystemResetWarning,0828.4,5.00,000.00,018.3,017.6,000.0,026.9,020.0,18.8,0000.0,0005.43,0004.05,0004.00
2024-02-11 02:49:00,SystemResetWarning,0828.4,4.99,000.00,018.3,017.6,000.0,026.9,020.0,18.8,0000.0,0005.43,0004.05,0004.00
2024-02-11 02:50:00,SystemResetWarning,0828.4,5.00,000.00,018.3,017.6,000.0,027.0,020.0,18.8,0000.0,0005.44,0004.05,0004.00
2024-02-11 02:51:00,SystemResetWarning,0828.4,5.00,000.00,018.3,017.6,000.0,026.9,020.0,18.8,0000.0,0005.46,0004.05,0004.01
2024-02-11 02:52:00,SystemResetWarning,0828.4,5.01,000.00,018.2,017.5,000.0,027.0,020.0,18.8,0000.0,0005.50,0004.06,0004.00
2024-02-11 02:53:00,SystemResetWarning,0828.4,5.00,000.00,018.3,017.8,000.0,027.0,020.2,18.8,0000.0,0005.50,0004.06,0004.00
2024-02-11 02:54:00,SystemResetWarning,0828.4,5.00,000.00,018.5,018.6,000.0,027.1,020.6,18.6,0000.0,0005.48,0004.05,0003.99
2024-02-11 02:55:00,SystemResetWarning,0828.4,4.99,000.00,018.6,018.9,000.0,027.1,020.8,18.4,0000.0,0005.38,0004.04,0003.98
2024-02-11 02:56:00,SystemResetWarning,0828.4,4.99,000.00,018.6,018.7,000.0,027.0,020.6,18.3,0000.0,0004.60,0004.04,0003.98
2024-02-11 02:57:00,SystemResetWarning,0828.4,4.99,000.00,018.6,018.5,000.0,027.0,020.4,18.4,0000.0,0004.62,0004.04,0003.98
2024-02-11 02:58:00,SystemResetWarning,0828.4,5.01,000.00,018.6,018.4,000.0,026.9,020.2,18.4,0000.0,0004.67,0004.06,0003.99
2024-02-11 02:59:00,SystemResetWarning,0828.4,5.00,000.00,018.5,018.2,000.0,026.9,020.1,18.5,0000.0,0004.64,0004.06,0003.99
